TimeMDT,TemperatureF,Dew PointF,Humidity,Sea Level PressureIn,VisibilityMPH,Wind Direction,Wind SpeedMPH,Gust SpeedMPH,PrecipitationIn,Events,Conditions,WindDirDegrees,DateUTC
12:15 AM,26.6,1.4,34,30.22,10.0,NNW,3.5,-,N/A,,Clear,330,2012-10-28 06:15:00
12:35 AM,26.6,1.4,34,30.22,10.0,North,4.6,-,N/A,,Clear,350,2012-10-28 06:35:00
12:55 AM,26.6,1.4,34,30.22,10.0,NNE,6.9,-,N/A,,Clear,20,2012-10-28 06:55:00
1:15 AM,26.6,3.2,37,30.22,10.0,NNE,4.6,-,N/A,,Clear,20,2012-10-28 07:15:00
1:35 AM,24.8,1.4,36,30.22,10.0,North,5.8,-,N/A,,Clear,10,2012-10-28 07:35:00
1:55 AM,24.8,1.4,36,30.22,10.0,North,6.9,-,N/A,,Clear,10,2012-10-28 07:55:00
2:15 AM,23.0,1.4,39,30.22,10.0,North,6.9,-,N/A,,Clear,350,2012-10-28 08:15:00
2:35 AM,24.8,1.4,36,30.23,10.0,North,5.8,-,N/A,,Clear,360,2012-10-28 08:35:00
2:55 AM,24.8,1.4,36,30.23,10.0,North,5.8,-,N/A,,Clear,10,2012-10-28 08:55:00
3:15 AM,24.8,1.4,36,30.23,10.0,North,5.8,-,N/A,,Clear,350,2012-10-28 09:15:00
3:35 AM,26.6,3.2,37,30.23,10.0,North,6.9,-,N/A,,Clear,360,2012-10-28 09:35:00
3:55 AM,28.4,3.2,34,30.23,10.0,North,4.6,-,N/A,,Clear,360,2012-10-28 09:55:00
4:15 AM,26.6,3.2,37,30.23,10.0,North,4.6,-,N/A,,Clear,10,2012-10-28 10:15:00
4:35 AM,28.4,6.8,40,30.23,10.0,Calm,Calm,-,N/A,,Clear,0,2012-10-28 10:35:00
4:55 AM,26.6,3.2,37,30.23,10.0,Calm,Calm,-,N/A,,Clear,0,2012-10-28 10:55:00
5:15 AM,26.6,3.2,37,30.23,10.0,Calm,Calm,-,N/A,,Clear,0,2012-10-28 11:15:00
5:35 AM,26.6,3.2,37,30.23,10.0,Calm,Calm,-,N/A,,Clear,0,2012-10-28 11:35:00
5:55 AM,26.6,3.2,37,30.23,10.0,Calm,Calm,-,N/A,,Clear,0,2012-10-28 11:55:00
6:15 AM,24.8,1.4,36,30.23,10.0,Calm,Calm,-,N/A,,Clear,0,2012-10-28 12:15:00
6:35 AM,23.0,1.4,39,30.23,10.0,North,8.1,-,N/A,,Clear,360,2012-10-28 12:35:00
6:55 AM,24.8,3.2,40,30.23,10.0,NNE,9.2,-,N/A,,Clear,20,2012-10-28 12:55:00
7:15 AM,24.8,5.0,43,30.23,10.0,North,5.8,-,N/A,,Clear,10,2012-10-28 13:15:00
7:35 AM,21.2,-0.4,39,30.24,10.0,North,5.8,-,N/A,,Clear,350,2012-10-28 13:35:00
7:55 AM,21.2,3.2,46,30.24,10.0,North,3.5,-,N/A,,Clear,350,2012-10-28 13:55:00
8:15 AM,24.8,3.2,40,30.26,10.0,NNE,3.5,-,N/A,,Clear,30,2012-10-28 14:15:00
8:35 AM,30.2,8.6,40,30.27,10.0,Calm,Calm,-,N/A,,Clear,0,2012-10-28 14:35:00
8:55 AM,35.6,8.6,33,30.28,10.0,Calm,Calm,-,N/A,,Clear,0,2012-10-28 14:55:00
9:15 AM,37.4,8.6,30,30.28,10.0,Calm,Calm,-,N/A,,Clear,0,2012-10-28 15:15:00
9:35 AM,39.2,10.4,31,30.28,10.0,NW,3.5,-,N/A,,Clear,320,2012-10-28 15:35:00
9:55 AM,42.8,10.4,27,30.27,10.0,Calm,Calm,-,N/A,,Clear,0,2012-10-28 15:55:00
10:15 AM,44.6,10.4,25,30.28,10.0,Calm,Calm,-,N/A,,Clear,0,2012-10-28 16:15:00
10:35 AM,46.4,10.4,23,30.27,10.0,Calm,Calm,-,N/A,,Clear,0,2012-10-28 16:35:00
10:55 AM,48.2,10.4,22,30.27,10.0,Calm,Calm,-,N/A,,Clear,0,2012-10-28 16:55:00
11:15 AM,50.0,10.4,20,30.27,10.0,Calm,Calm,-,N/A,,Clear,0,2012-10-28 17:15:00
11:35 AM,51.8,10.4,19,30.27,10.0,SW,4.6,-,N/A,,Clear,230,2012-10-28 17:35:00
11:55 AM,53.6,10.4,18,30.27,10.0,Calm,Calm,-,N/A,,Clear,0,2012-10-28 17:55:00
12:15 PM,53.6,10.4,18,30.26,10.0,WSW,4.6,-,N/A,,Clear,250,2012-10-28 18:15:00
12:35 PM,55.4,12.2,18,30.25,10.0,Calm,Calm,-,N/A,,Clear,0,2012-10-28 18:35:00
12:55 PM,55.4,12.2,18,30.24,10.0,Calm,Calm,-,N/A,,Clear,0,2012-10-28 18:55:00
1:15 PM,57.2,14.0,18,30.23,10.0,SW,3.5,-,N/A,,Clear,230,2012-10-28 19:15:00
1:35 PM,59.0,15.8,19,30.22,10.0,SW,6.9,-,N/A,,Unknown,230,2012-10-28 19:35:00
1:55 PM,59.0,17.6,20,30.21,10.0,West,8.1,-,N/A,,Clear,260,2012-10-28 19:55:00
2:15 PM,59.0,15.8,19,30.20,10.0,WSW,6.9,-,N/A,,Clear,240,2012-10-28 20:15:00
2:35 PM,60.8,15.8,17,30.20,10.0,WSW,8.1,-,N/A,,Clear,250,2012-10-28 20:35:00
2:55 PM,60.8,15.8,17,30.19,10.0,WSW,8.1,-,N/A,,Clear,240,2012-10-28 20:55:00
3:15 PM,60.8,17.6,19,30.19,10.0,SSW,8.1,-,N/A,,Clear,200,2012-10-28 21:15:00
3:35 PM,62.6,17.6,18,30.18,10.0,WSW,11.5,-,N/A,,Clear,240,2012-10-28 21:35:00
3:55 PM,62.6,17.6,18,30.17,10.0,SW,10.4,17.3,N/A,,Clear,230,2012-10-28 21:55:00
4:15 PM,62.6,19.4,19,30.16,10.0,WSW,13.8,-,N/A,,Clear,240,2012-10-28 22:15:00
4:35 PM,60.8,19.4,20,30.17,10.0,SW,12.7,-,N/A,,Clear,230,2012-10-28 22:35:00
4:55 PM,60.8,19.4,20,30.17,10.0,SSW,10.4,-,N/A,,Clear,200,2012-10-28 22:55:00
5:15 PM,60.8,19.4,20,30.17,10.0,SSW,10.4,-,N/A,,Clear,200,2012-10-28 23:15:00
5:35 PM,60.8,19.4,20,30.17,10.0,SW,11.5,-,N/A,,Clear,220,2012-10-28 23:35:00
5:55 PM,57.2,17.6,21,30.18,10.0,SSW,10.4,-,N/A,,Clear,210,2012-10-28 23:55:00
6:15 PM,53.6,17.6,24,30.18,10.0,SW,11.5,-,N/A,,Clear,220,2012-10-29 00:15:00
6:35 PM,53.6,15.8,22,30.19,10.0,SW,10.4,-,N/A,,Clear,220,2012-10-29 00:35:00
6:55 PM,51.8,15.8,24,30.20,10.0,SW,11.5,-,N/A,,Clear,220,2012-10-29 00:55:00
7:15 PM,50.0,15.8,26,30.20,10.0,WSW,10.4,-,N/A,,Clear,250,2012-10-29 01:15:00
7:35 PM,46.4,15.8,29,30.21,10.0,WSW,9.2,-,N/A,,Clear,250,2012-10-29 01:35:00
7:55 PM,46.4,14.0,27,30.22,10.0,Calm,Calm,-,N/A,,Clear,0,2012-10-29 01:55:00
8:15 PM,44.6,14.0,29,30.23,10.0,Calm,Calm,-,N/A,,Clear,0,2012-10-29 02:15:00
8:35 PM,42.8,12.2,29,30.23,10.0,Calm,Calm,-,N/A,,Clear,0,2012-10-29 02:35:00
8:55 PM,44.6,15.8,31,30.23,10.0,Calm,Calm,-,N/A,,Clear,0,2012-10-29 02:55:00
9:15 PM,39.2,12.2,33,30.24,10.0,Calm,Calm,-,N/A,,Clear,0,2012-10-29 03:15:00
9:35 PM,37.4,12.2,36,30.24,10.0,East,8.1,-,N/A,,Clear,90,2012-10-29 03:35:00
9:55 PM,37.4,12.2,36,30.25,10.0,ESE,3.5,-,N/A,,Clear,110,2012-10-29 03:55:00
10:15 PM,37.4,14.0,38,30.26,10.0,Calm,Calm,-,N/A,,Clear,0,2012-10-29 04:15:00
10:35 PM,35.6,12.2,38,30.27,10.0,East,6.9,-,N/A,,Clear,90,2012-10-29 04:35:00
10:55 PM,37.4,12.2,36,30.27,10.0,East,3.5,-,N/A,,Clear,100,2012-10-29 04:55:00
11:15 PM,35.6,12.2,38,30.27,10.0,SSW,4.6,-,N/A,,Clear,200,2012-10-29 05:15:00
11:35 PM,35.6,10.4,35,30.28,10.0,East,6.9,-,N/A,,Clear,100,2012-10-29 05:35:00
11:55 PM,39.2,15.8,39,30.28,10.0,ESE,3.5,-,N/A,,Clear,110,2012-10-29 05:55:00